[Date Prev][Date Next][Thread Prev][Thread Next] - [Date Index][Thread Index][Author Index]
2 Line ISS Keps 5-3
- Subject: [sarex] 2 Line ISS Keps 5-3
- From: "Dave Larsen PhD" <doc@xxxxxxxxxxx>
- Date: Tue, 3 May 2005 05:04:25 -0700
ISS
1 25544U 98067A 05123.36705516 .00012430 00000-0 98609-4 0 3848
2 25544 051.6437 130.4035 0007873 075.5036 002.8777 15.71702425368636
----
Via the sarex mailing list at AMSAT.ORG courtesy of AMSAT-NA.
To unsubscribe, send "unsubscribe sarex" to Majordomo@amsat.org
AMSAT Home